[[{"header":{"parameterUnit":"m.s-1","parameterCategory":1,"la1":30.2991,"la2":30.254,"lo1":-89.0895,"lo2":-89.0444,"dy":0.0017,"dx":0.0017,"nx":28,"ny":28,"refTime":"2025-11-27T03:00:00:Z","depth":0,"parameterNumber":2,"parameterNumberName":"U-component_of_WINDS"},"data":[0,0,0,0,0,0,0,0,0,0,0,0,0,0,0,0,0,0,0,0,0,0,0,0,0,0,0,0,0,0,0,0,0,0,0,0,0,0,0,0,0,0,0,0,0,0,0,0,0,0,0,0,0,0,0,0,0,0,-0.2262,-0.2263,0,-0.2301,-0.2302,-0.2302,-0.2271,-0.2269,-0.2268,-0.2267,-0.231,-0.2312,-0.2314,0,0,0,0,0,0,0,0,0,0,0,0,0,-0.2163,-0.2165,-0.2262,-0.2263,-0.2263,-0.2301,-0.2302,-0.2302,-0.2271,-0.2269,-0.2268,-0.2266,-0.2309,-0.2312,-0.2314,0,0,0,0,0,0,0,0,0,0,0,0,0,-0.2205,-0.2166,-0.2262,-0.2252,-0.2252,-0.2301,-0.2302,-0.2302,-0.2271,-0.2269,-0.2267,-0.2266,-0.2308,-0.2311,-0.2315,-0.2377,0,0,-0.2326,-0.2327,0,0,0,0,0,0,0,0,-0.2202,-0.2208,-0.2253,-0.2253,-0.2253,-0.2279,-0.2282,-0.2327,-0.2272,-0.2264,-0.2267,-0.2265,-0.2301,-0.2305,-0.2317,-0.2379,-0.2381,-0.2326,-0.2328,-0.233,-0.2331,0,0,0,0,0,0,0,-0.2199,-0.2206,-0.2278,-0.2254,-0.2254,-0.2246,-0.225,-0.2291,-0.2294,-0.2265,-0.2262,-0.2267,-0.2301,-0.2314,-0.2318,-0.2381,-0.2326,-0.2329,-0.2331,-0.2333,-0.2496,-0.2498,0,0,0,0,0,0,-0.2197,-0.2204,-0.2277,-0.2279,-0.2222,-0.225,-0.2254,-0.2273,-0.2293,-0.2294,-0.2269,-0.2266,-0.2308,-0.2314,-0.2319,-0.2393,-0.233,-0.2333,-0.2335,-0.2493,-0.2496,-0.2498,0,0,0,0,0,0,-0.2195,-0.2204,-0.2275,-0.2241,-0.2249,-0.2254,-0.2275,-0.2274,-0.2287,-0.2296,-0.2297,-0.2282,-0.2307,-0.2314,-0.2362,-0.2395,-0.2335,-0.2338,-0.2491,-0.2494,-0.2497,-0.2543,0,0,0,0,0,0,-0.2192,-0.2203,-0.2227,-0.2242,-0.2251,-0.2318,-0.2277,-0.2277,-0.2293,-0.2289,-0.2308,-0.2309,-0.2306,-0.2357,-0.2366,-0.2398,-0.2341,-0.2488,-0.2492,-0.2496,-0.2538,-0.2547,-0.2554,0,0,0,0,0,-0.2189,-0.2239,-0.2228,-0.2237,-0.2281,-0.2319,-0.2325,-0.2319,-0.2296,-0.232,-0.2325,-0.2309,-0.2389,-0.2363,-0.2372,-0.2406,-0.2486,-0.2491,-0.2496,-0.2535,-0.2545,-0.2554,0,0,0,0,0,0,-0.2229,-0.2241,-0.2229,-0.2285,-0.2301,-0.2314,-0.2344,-0.2331,-0.2355,-0.2351,-0.2343,-0.2348,-0.2399,-0.2407,-0.2377,-0.2467,-0.2434,-0.2441,-0.246,-0.247,-0.2478,-0.2476,-0.2344,0,0,0,0,0,-0.2244,-0.2274,-0.2282,-0.2331,-0.234,-0.234,-0.2357,-0.2351,-0.2368,-0.2375,-0.2384,-0.2402,-0.2431,-0.2451,-0.2478,-0.2538,-0.2542,-0.2566,-0.2574,-0.2581,-0.2588,-0.262,-0.2631,-0.2515,-0.2515,-0.2514,0,0,-0.2276,-0.2286,-0.2306,-0.2339,-0.2351,-0.2383,-0.2347,-0.2382,-0.2406,-0.2381,-0.2427,-0.2434,-0.2453,-0.2508,-0.2533,-0.2517,-0.262,-0.2587,-0.2592,-0.2596,-0.2627,-0.2638,-0.2648,-0.2518,-0.2517,-0.2517,0,0,-0.2351,-0.2361,-0.2403,-0.2415,-0.2433,-0.2433,-0.2443,-0.2457,-0.246,-0.2506,-0.2488,-0.2516,-0.2566,-0.2581,-0.2595,-0.2673,-0.2659,-0.2682,-0.2725,-0.2757,-0.2766,-0.2775,-0.2803,-0.2814,-0.2688,-0.2688,-0.2689,0,-0.2389,-0.2436,-0.2426,-0.2462,-0.2478,-0.2455,-0.2497,-0.251,-0.2536,-0.2548,-0.2529,-0.2591,-0.2602,-0.266,-0.2679,-0.269,-0.2702,-0.2681,-0.2766,-0.2774,-0.2781,-0.2809,-0.282,-0.2691,-0.2691,-0.2691,-0.269,0,-0.2482,-0.2514,-0.2546,-0.2571,-0.2589,-0.2629,-0.2625,-0.2645,-0.2637,-0.2639,-0.2686,-0.2698,-0.2727,-0.274,-0.2733,-0.2797,-0.2786,-0.2766,-0.2734,-0.2795,-0.2821,-0.2831,-0.2695,-0.2694,-0.2693,-0.2693,0,0,-0.2586,-0.2604,-0.2616,-0.2626,-0.2643,-0.2669,-0.2706,-0.2734,-0.2752,-0.277,-0.2802,-0.2844,-0.2825,-0.2841,-0.2835,-0.2862,-0.2924,-0.2839,-0.284,-0.2856,-0.2996,-0.3013,-0.3025,-0.2914,-0.2916,-0.2917,-0.2995,0,-0.2663,-0.2729,-0.272,-0.2783,-0.2813,-0.2791,-0.2823,-0.2838,-0.284,-0.2866,-0.2868,-0.2899,-0.2871,-0.2881,-0.2907,-0.2911,-0.2953,-0.2905,-0.2945,-0.2947,-0.2943,-0.3038,-0.3056,-0.3129,-0.3005,-0.3007,-0.3008,0,-0.2762,-0.2783,-0.2849,-0.286,-0.2873,-0.2903,-0.2927,-0.2951,-0.2967,-0.2966,-0.2983,-0.2971,-0.3009,-0.2973,-0.3026,-0.2994,-0.3009,-0.3014,-0.3017,-0.3022,-0.2983,-0.3048,-0.3152,-0.3164,-0.3024,-0.3022,-0.3021,0,-0.2834,-0.2878,-0.2923,-0.2932,-0.2947,-0.2968,-0.2975,-0.2988,-0.3005,-0.3026,-0.3037,-0.3062,-0.3077,-0.3096,-0.3092,-0.3066,-0.3146,-0.311,-0.3148,-0.3148,-0.3168,-0.3167,-0.3278,-0.3174,-0.3174,-0.3174,-0.3174,0,-0.2922,-0.2963,-0.2955,-0.2983,-0.3028,-0.3018,-0.3063,-0.3068,-0.3079,-0.3108,-0.3089,-0.3117,-0.3108,-0.3135,-0.3131,-0.3176,-0.3182,-0.3183,-0.3183,-0.3186,-0.3187,-0.3198,-0.3194,-0.3177,-0.3176,-0.3176,-0.3175,0,-0.301,-0.3006,-0.3054,-0.3063,-0.3066,-0.3099,-0.3107,-0.3133,-0.3133,-0.3169,-0.3177,-0.3177,-0.3208,-0.3204,-0.3238,-0.3236,-0.3292,-0.3284,-0.3287,-0.3286,-0.3324,-0.3321,-0.3448,-0.3464,-0.3349,-0.335,-0.3351,0,-0.3068,-0.3099,-0.3111,-0.3128,-0.3137,-0.3165,-0.3181,-0.3171,-0.3189,-0.3208,-0.3232,-0.3261,-0.3283,-0.3333,-0.3337,-0.3363,-0.3356,-0.3398,-0.336,-0.3363,-0.3359,-0.3358,-0.3361,-0.3407,-0.3408,-0.3409,-0.341,0,-0.3171,-0.3167,-0.3191,-0.3215,-0.3234,-0.3252,-0.3269,-0.3284,-0.3275,-0.3296,-0.3327,-0.3344,-0.3378,-0.3407,-0.3431,-0.3439,-0.3424,-0.3422,-0.3432,-0.3438,-0.3439,-0.344,-0.331,-0.342,-0.3419,-0.3418,-0.3418,-0.3417,-0.3248,-0.3274,-0.3286,-0.3314,-0.3324,-0.3339,-0.3364,-0.3366,-0.3391,-0.3418,-0.341,-0.3445,-0.3458,-0.3488,-0.3498,-0.3525,-0.351,-0.3525,-0.3529,-0.3534,-0.3539,-0.3432,-0.353,-0.3529,-0.3529,-0.3529,-0.3529,0,-0.3351,-0.3357,-0.3382,-0.3405,-0.3426,-0.3407,-0.3424,-0.3444,-0.3474,-0.3487,-0.3509,-0.3544,-0.3571,-0.3575,-0.3601,-0.3622,-0.3616,-0.363,-0.3629,-0.3631,-0.355,-0.3539,-0.3634,-0.3634,-0.3634,-0.3634,-0.3634,-0.3634,-0.3408,-0.3452,-0.3449,-0.3498,-0.3504,-0.3537,-0.3548,-0.3562,-0.3572,-0.3612,-0.3634,-0.3636,-0.3646,-0.3672,-0.3696,-0.3696,-0.3708,-0.3725,-0.3723,-0.3647,-0.3637,-0.3627,-0.3617,-0.3727,-0.3727,-0.3802,-0.3802,-0.3803]},{"header":{"parameterUnit":"m.s-1","parameterCategory":1,"la1":30.2991,"la2":30.254,"lo1":-89.0895,"lo2":-89.0444,"dy":0.0017,"dx":0.0017,"nx":28,"ny":28,"refTime":"2025-11-27T03:00:00:Z","depth":0,"parameterNumber":3,"parameterNumberName":"V-component_of_WINDS"},"data":[0,0,0,0,0,0,0,0,0,0,0,0,0,0,0,0,0,0,0,0,0,0,0,0,0,0,0,0,0,0,0,0,0,0,0,0,0,0,0,0,0,0,0,0,0,0,0,0,0,0,0,0,0,0,0,0,0,0,-6.3868,-6.3869,0,-6.4,-6.4002,-6.4003,-6.3893,-6.3889,-6.3884,-6.388,-6.4009,-6.4016,-6.4024,0,0,0,0,0,0,0,0,0,0,0,0,0,-6.3515,-6.3522,-6.3868,-6.387,-6.3871,-6.4,-6.4002,-6.4003,-6.3894,-6.3888,-6.3883,-6.3878,-6.4006,-6.4015,-6.4025,0,0,0,0,0,0,0,0,0,0,0,0,0,-6.3659,-6.3524,-6.3868,-6.3832,-6.383,-6.4,-6.4002,-6.4004,-6.3895,-6.3888,-6.3881,-6.3875,-6.4003,-6.4015,-6.4026,-6.4235,0,0,-6.4061,-6.4066,0,0,0,0,0,0,0,0,-6.3651,-6.3673,-6.3836,-6.3835,-6.3833,-6.3923,-6.3924,-6.4081,-6.3897,-6.387,-6.388,-6.3872,-6.3986,-6.3998,-6.4038,-6.4241,-6.4247,-6.4062,-6.4069,-6.4074,-6.4078,0,0,0,0,0,0,0,-6.3642,-6.3666,-6.392,-6.3838,-6.3837,-6.3808,-6.3821,-6.3954,-6.3965,-6.3872,-6.3865,-6.3882,-6.3983,-6.4027,-6.404,-6.4248,-6.4062,-6.4072,-6.4079,-6.4084,-6.463,-6.4637,0,0,0,0,0,0,-6.3636,-6.3659,-6.3916,-6.3924,-6.3724,-6.382,-6.3834,-6.3901,-6.3963,-6.3966,-6.3888,-6.3876,-6.4011,-6.4027,-6.4044,-6.4293,-6.4074,-6.4085,-6.4092,-6.4622,-6.4631,-6.4639,0,0,0,0,0,0,-6.3629,-6.366,-6.391,-6.3789,-6.3819,-6.3833,-6.3909,-6.3907,-6.3951,-6.3975,-6.3976,-6.3931,-6.4006,-6.4028,-6.4189,-6.4296,-6.409,-6.4101,-6.4613,-6.4625,-6.4635,-6.4793,0,0,0,0,0,0,-6.3619,-6.3658,-6.3739,-6.3792,-6.3826,-6.4055,-6.3916,-6.3915,-6.3972,-6.3958,-6.4015,-6.4018,-6.4002,-6.4172,-6.42,-6.4308,-6.411,-6.4604,-6.4618,-6.4632,-6.4779,-6.4809,-6.4835,0,0,0,0,0,-6.3607,-6.3777,-6.3744,-6.3775,-6.3928,-6.4062,-6.4081,-6.4061,-6.3981,-6.4062,-6.4077,-6.4016,-6.428,-6.419,-6.422,-6.4334,-6.4597,-6.4614,-6.4631,-6.4766,-6.4803,-6.4834,0,0,0,0,0,0,-6.3734,-6.3783,-6.3747,-6.394,-6.3998,-6.4043,-6.4144,-6.41,-6.418,-6.4164,-6.4134,-6.4147,-6.4317,-6.4341,-6.424,-6.4539,-6.4425,-6.4449,-6.4518,-6.4553,-6.458,-6.4571,-6.4119,0,0,0,0,0,-6.3785,-6.3891,-6.3927,-6.4094,-6.4125,-6.413,-6.4188,-6.4167,-6.4225,-6.4249,-6.4275,-6.4332,-6.4428,-6.4491,-6.458,-6.4781,-6.4792,-6.4874,-6.4902,-6.4925,-6.4946,-6.5054,-6.5091,-6.4695,-6.4695,-6.4695,0,0,-6.389,-6.393,-6.3999,-6.4121,-6.4163,-6.4273,-6.4151,-6.4272,-6.4352,-6.4266,-6.4421,-6.4443,-6.4504,-6.4686,-6.4767,-6.4711,-6.5058,-6.4947,-6.4965,-6.4973,-6.5075,-6.5113,-6.5146,-6.4707,-6.4705,-6.4703,0,0,-6.4138,-6.4179,-6.4323,-6.4369,-6.4435,-6.4438,-6.4472,-6.4525,-6.4537,-6.4692,-6.463,-6.4723,-6.4889,-6.4935,-6.498,-6.5247,-6.5194,-6.5276,-6.5422,-6.5528,-6.5559,-6.5586,-6.5682,-6.5716,-6.5297,-6.5298,-6.5298,0,-6.426,-6.4425,-6.4402,-6.4528,-6.4583,-6.4512,-6.4656,-6.4701,-6.4793,-6.4831,-6.4767,-6.4974,-6.501,-6.5202,-6.5267,-6.5306,-6.5344,-6.527,-6.5557,-6.5584,-6.5609,-6.57,-6.5736,-6.5307,-6.5306,-6.5305,-6.5304,0,-6.4571,-6.4686,-6.4794,-6.4887,-6.4954,-6.5088,-6.5084,-6.5154,-6.5128,-6.5137,-6.5295,-6.5336,-6.5433,-6.5476,-6.5451,-6.5665,-6.5628,-6.5561,-6.5446,-6.5657,-6.5742,-6.5776,-6.5321,-6.5318,-6.5315,-6.5312,0,0,-6.4903,-6.4983,-6.5023,-6.5064,-6.5133,-6.5221,-6.5351,-6.5448,-6.5509,-6.5574,-6.5682,-6.5824,-6.5763,-6.5814,-6.5793,-6.5886,-6.6095,-6.5807,-6.5808,-6.5859,-6.6333,-6.6384,-6.6424,-6.606,-6.6066,-6.6071,-6.6328,0,-6.5155,-6.5385,-6.5368,-6.5584,-6.569,-6.5624,-6.5738,-6.5791,-6.5803,-6.5892,-6.5903,-6.6005,-6.5916,-6.5947,-6.6036,-6.6051,-6.6189,-6.6032,-6.6159,-6.6164,-6.6147,-6.6468,-6.6522,-6.6763,-6.6361,-6.6366,-6.637,0,-6.5479,-6.5559,-6.5787,-6.584,-6.5883,-6.5986,-6.6074,-6.6161,-6.6219,-6.6221,-6.6279,-6.6243,-6.6373,-6.6255,-6.6433,-6.6326,-6.6377,-6.6392,-6.6401,-6.6412,-6.628,-6.6489,-6.6839,-6.6875,-6.6422,-6.6418,-6.6414,0,-6.5699,-6.5863,-6.602,-6.6058,-6.6124,-6.6198,-6.6228,-6.628,-6.634,-6.6415,-6.6453,-6.6542,-6.6591,-6.6659,-6.6647,-6.6562,-6.6829,-6.671,-6.6833,-6.6833,-6.6892,-6.6889,-6.7256,-6.6925,-6.6924,-6.6923,-6.6922,0,-6.5982,-6.6124,-6.612,-6.6218,-6.6374,-6.6353,-6.6507,-6.6529,-6.6576,-6.6675,-6.6622,-6.6715,-6.6693,-6.6785,-6.6776,-6.6925,-6.6947,-6.6951,-6.6947,-6.6957,-6.6956,-6.699,-6.6973,-6.6933,-6.6931,-6.6929,-6.6927,0,-6.6255,-6.6258,-6.6426,-6.6475,-6.6491,-6.6604,-6.6645,-6.6736,-6.6743,-6.6869,-6.6897,-6.6907,-6.7013,-6.7008,-6.7127,-6.712,-6.7304,-6.728,-6.7286,-6.7281,-6.7404,-6.7393,-6.7806,-6.7859,-6.7493,-6.7497,-6.75,0,-6.6436,-6.6544,-6.6606,-6.6669,-6.6705,-6.6808,-6.6869,-6.6851,-6.6916,-6.6992,-6.7073,-6.7175,-6.7255,-6.7427,-6.7444,-6.7534,-6.7512,-6.7651,-6.7525,-6.7532,-6.7515,-6.7509,-6.752,-6.7675,-6.768,-6.7683,-6.7686,0,-6.6757,-6.6753,-6.6844,-6.6937,-6.7012,-6.7083,-6.7148,-6.7202,-6.7191,-6.7267,-6.7376,-6.7438,-6.7561,-6.7662,-6.7748,-6.7777,-6.773,-6.7725,-6.7758,-6.7769,-6.7768,-6.7771,-6.7353,-6.7716,-6.7713,-6.771,-6.7709,-6.7708,-6.6989,-6.7082,-6.7141,-6.7244,-6.7292,-6.7354,-6.7442,-6.7461,-6.7553,-6.7653,-6.7636,-6.7758,-6.7813,-6.7925,-6.7962,-6.8056,-6.8006,-6.8054,-6.8066,-6.8079,-6.8093,-6.7753,-6.8071,-6.807,-6.8069,-6.8069,-6.8068,0,-6.7308,-6.7342,-6.7438,-6.7532,-6.7613,-6.7564,-6.7633,-6.7703,-6.7812,-6.7869,-6.7949,-6.8074,-6.8172,-6.8197,-6.8291,-6.8361,-6.8342,-6.8386,-6.8381,-6.8388,-6.8132,-6.8094,-6.84,-6.84,-6.84,-6.84,-6.84,-6.84,-6.7483,-6.7639,-6.7642,-6.782,-6.7853,-6.7974,-6.8018,-6.8075,-6.812,-6.8263,-6.8345,-6.8361,-6.8405,-6.8501,-6.8588,-6.8593,-6.863,-6.8683,-6.868,-6.844,-6.8406,-6.8375,-6.8339,-6.8692,-6.8692,-6.8928,-6.893,-6.8932]}]]